• în România
  • Lista ţărilor
  • Pe 7 zile
  • Temperatura apei
  • Hartă satelitară
  • Meteo pe hartă
  • Widget-uri
  • user-avatar
    Intrare

    Meteo pe oră la Gjirokaster

    Astăzi, 21 Noiembrie, Marţi

    Timp Temperatura Precipitaţii Vânt Presiune Umiditate
    00:00 -3°C° 0 mm 2 m/s 651 mmHg 68%
    01:00 -3°C° 0 mm 2 m/s 651 mmHg 68%
    02:00 -3°C° 0 mm 2 m/s 651 mmHg 66%
    03:00 -4°C° 0 mm 3 m/s 651 mmHg 65%
    04:00 -4°C° 0 mm 3 m/s 651 mmHg 63%
    05:00 -3°C° 0 mm 2 m/s 652 mmHg 61%
    06:00 -3°C° 0 mm 2 m/s 652 mmHg 58%
    07:00 -3°C° 0 mm 2 m/s 652 mmHg 56%
    08:00 -1°C° 0 mm 2 m/s 652 mmHg 50%
    09:00 +3°C° 0 mm 1 m/s 653 mmHg 44%
    10:00 +4°C° 0 mm 1 m/s 654 mmHg 38%
    11:00 +5°C° 0 mm 1 m/s 654 mmHg 38%
    12:00 +5°C° 0 mm 2 m/s 654 mmHg 38%
    13:00 +5°C° 0 mm 2 m/s 654 mmHg 38%
    14:00 +4°C° 0 mm 2 m/s 653 mmHg 43%
    15:00 +3°C° 0 mm 2 m/s 653 mmHg 48%
    16:00 +3°C° 0 mm 1 m/s 653 mmHg 54%
    17:00 +2°C° 0 mm 1 m/s 653 mmHg 55%
    18:00 +2°C° 0 mm 1 m/s 653 mmHg 56%
    19:00 +1°C° 0 mm 1 m/s 653 mmHg 57%
    20:00 +1°C° 0 mm 1 m/s 653 mmHg 56%
    21:00 +1°C° 0 mm 1 m/s 653 mmHg 55%
    22:00 0°C° 0 mm 1 m/s 653 mmHg 54%
    23:00 0°C° 0 mm 1 m/s 653 mmHg 53%

    Mâine, 22 Noiembrie, Miercuri

    Timp Temperatura Precipitaţii Vânt Presiune Umiditate
    00:00 0°C° 0 mm 1 m/s 653 mmHg 51%
    01:00 0°C° 0 mm 1 m/s 653 mmHg 50%
    02:00 0°C° 0 mm 1 m/s 653 mmHg 49%
    03:00 0°C° 0 mm 1 m/s 653 mmHg 49%
    04:00 0°C° 0 mm 1 m/s 653 mmHg 48%
    05:00 0°C° 0 mm 1 m/s 653 mmHg 49%
    06:00 0°C° 0 mm 1 m/s 653 mmHg 50%
    07:00 0°C° 0 mm 1 m/s 653 mmHg 51%
    08:00 +3°C° 0 mm 1 m/s 653 mmHg 49%
    09:00 +5°C° 0 mm 1 m/s 654 mmHg 47%
    10:00 +7°C° 0 mm 1 m/s 655 mmHg 45%
    11:00 +7°C° 0 mm 1 m/s 655 mmHg 46%
    12:00 +8°C° 0 mm 1 m/s 655 mmHg 46%
    13:00 +8°C° 0 mm 2 m/s 654 mmHg 47%
    14:00 +7°C° 0 mm 1 m/s 654 mmHg 53%
    15:00 +6°C° 0 mm 1 m/s 654 mmHg 59%
    16:00 +5°C° 0 mm 1 m/s 653 mmHg 65%
    17:00 +4°C° 0 mm 1 m/s 653 mmHg 67%
    18:00 +4°C° 0 mm 1 m/s 653 mmHg 69%
    19:00 +3°C° 0 mm 1 m/s 653 mmHg 71%
    20:00 +3°C° 0 mm 1 m/s 653 mmHg 70%
    21:00 +3°C° 0 mm 1 m/s 653 mmHg 70%
    22:00 +3°C° 0 mm 1 m/s 653 mmHg 69%
    23:00 +2°C° 0 mm 1 m/s 653 mmHg 69%

    Poimâine, 23 Noiembrie, Joi

    Timp Temperatura Precipitaţii Vânt Presiune Umiditate
    00:00 +2°C° 0 mm 1 m/s 653 mmHg 68%
    01:00 +2°C° 0 mm 1 m/s 653 mmHg 67%
    02:00 +2°C° 0 mm 1 m/s 653 mmHg 66%
    03:00 +2°C° 0 mm 1 m/s 653 mmHg 65%
    04:00 +2°C° 0 mm 1 m/s 653 mmHg 65%
    05:00 +2°C° 0 mm 1 m/s 653 mmHg 64%
    06:00 +2°C° 0 mm 1 m/s 653 mmHg 63%
    07:00 +2°C° 0 mm 1 m/s 653 mmHg 62%
    08:00 +4°C° 0 mm 1 m/s 654 mmHg 56%
    09:00 +6°C° 0 mm 1 m/s 654 mmHg 51%
    10:00 +8°C° 0 mm 1 m/s 655 mmHg 46%
    11:00 +9°C° 0 mm 1 m/s 655 mmHg 46%
    12:00 +10°C° 0 mm 1 m/s 655 mmHg 47%
    13:00 +10°C° 0 mm 1 m/s 655 mmHg 47%
    14:00 +9°C° 0 mm 1 m/s 655 mmHg 53%
    15:00 +8°C° 0 mm 1 m/s 654 mmHg 60%
    16:00 +6°C° 0 mm 1 m/s 654 mmHg 66%
    17:00 +6°C° 0 mm 1 m/s 654 mmHg 67%
    18:00 +5°C° 0 mm 1 m/s 654 mmHg 69%
    19:00 +4°C° 0 mm 1 m/s 654 mmHg 70%
    20:00 +4°C° 0 mm 1 m/s 654 mmHg 69%
    21:00 +4°C° 0 mm 1 m/s 654 mmHg 68%
    22:00 +4°C° 0 mm 1 m/s 655 mmHg 67%
    23:00 +3°C° 0 mm 1 m/s 654 mmHg 66%

    24 Noiembrie, Vineri

    Timp Temperatura Precipitaţii Vânt Presiune Umiditate
    00:00 +3°C° 0 mm 1 m/s 654 mmHg 65%
    01:00 +3°C° 0 mm 1 m/s 654 mmHg 63%
    02:00 +3°C° 0 mm 1 m/s 654 mmHg 62%
    03:00 +3°C° 0 mm 1 m/s 654 mmHg 62%
    04:00 +3°C° 0 mm 1 m/s 654 mmHg 61%
    05:00 +3°C° 0 mm 1 m/s 654 mmHg 60%
    06:00 +3°C° 0 mm 1 m/s 654 mmHg 59%
    07:00 +2°C° 0 mm 1 m/s 654 mmHg 58%
    08:00 +5°C° 0 mm 1 m/s 655 mmHg 53%
    09:00 +7°C° 0 mm 1 m/s 655 mmHg 48%
    10:00 +9°C° 0 mm 1 m/s 656 mmHg 43%
    11:00 +9°C° 0 mm 1 m/s 656 mmHg 43%
    12:00 +10°C° 0 mm 1 m/s 656 mmHg 44%
    13:00 +9°C° 0 mm 2 m/s 656 mmHg 44%
    14:00 +8°C° 0 mm 2 m/s 655 mmHg 51%
    15:00 +7°C° 0 mm 2 m/s 655 mmHg 57%
    16:00 +6°C° 0 mm 2 m/s 655 mmHg 64%
    17:00 +5°C° 0 mm 2 m/s 655 mmHg 67%
    18:00 +4°C° 0 mm 2 m/s 655 mmHg 69%
    19:00 +3°C° 0 mm 2 m/s 655 mmHg 72%
    20:00 +3°C° 0 mm 2 m/s 655 mmHg 72%
    21:00 +3°C° 0 mm 2 m/s 655 mmHg 71%
    22:00 +3°C° 0 mm 2 m/s 656 mmHg 71%
    23:00 +3°C° 0 mm 2 m/s 655 mmHg 71%

    25 Noiembrie, Sâmbătă

    Timp Temperatura Precipitaţii Vânt Presiune Umiditate
    00:00 +2°C° 0 mm 2 m/s 655 mmHg 71%
    01:00 +2°C° 0 mm 2 m/s 655 mmHg 71%
    02:00 +2°C° 0 mm 2 m/s 655 mmHg 72%
    03:00 +2°C° 0 mm 2 m/s 655 mmHg 72%
    04:00 +2°C° 0 mm 2 m/s 655 mmHg 73%
    05:00 +2°C° 0 mm 2 m/s 655 mmHg 74%
    06:00 +2°C° 0 mm 2 m/s 655 mmHg 75%
    07:00 +1°C° 0 mm 2 m/s 656 mmHg 75%
    08:00 +4°C° 0 mm 1 m/s 656 mmHg 69%
    09:00 +6°C° 0 mm 1 m/s 657 mmHg 63%
    10:00 +8°C° 0 mm 1 m/s 658 mmHg 57%
    11:00 +9°C° 0 mm 1 m/s 657 mmHg 55%
    12:00 +10°C° 0 mm 1 m/s 657 mmHg 52%
    13:00 +10°C° 0 mm 1 m/s 657 mmHg 49%
    14:00 +9°C° 0 mm 1 m/s 657 mmHg 55%
    15:00 +8°C° 0 mm 1 m/s 657 mmHg 61%
    16:00 +7°C° 0 mm 1 m/s 656 mmHg 67%
    17:00 +6°C° 0 mm 1 m/s 656 mmHg 69%
    18:00 +5°C° 0 mm 1 m/s 657 mmHg 71%
    19:00 +5°C° 0 mm 1 m/s 657 mmHg 74%
    20:00 +4°C° 0 mm 1 m/s 657 mmHg 75%
    21:00 +4°C° 0 mm 1 m/s 657 mmHg 75%
    22:00 +4°C° 0 mm 1 m/s 657 mmHg 76%
    23:00 +4°C° 0 mm 1 m/s 657 mmHg 76%

    26 Noiembrie, Duminică

    Timp Temperatura Precipitaţii Vânt Presiune Umiditate
    00:00 +3°C° 0 mm 1 m/s 657 mmHg 77%
    01:00 +3°C° 0 mm 1 m/s 657 mmHg 77%
    02:00 +3°C° 0 mm 1 m/s 657 mmHg 77%
    03:00 +3°C° 0 mm 1 m/s 657 mmHg 77%
    04:00 +3°C° 0 mm 1 m/s 656 mmHg 77%
    05:00 +3°C° 0 mm 1 m/s 657 mmHg 77%
    06:00 +2°C° 0 mm 1 m/s 657 mmHg 77%
    07:00 +1°C° 0 mm 2 m/s 657 mmHg 77%
    08:00 +4°C° 0 mm 1 m/s 657 mmHg 71%
    09:00 +6°C° 0 mm 1 m/s 658 mmHg 65%
    10:00 +8°C° 0 mm 1 m/s 658 mmHg 59%
    11:00 +9°C° 0 mm 1 m/s 658 mmHg 58%
    12:00 +8°C° 0 mm 2 m/s 658 mmHg 57%
    13:00 +9°C° 0 mm 2 m/s 657 mmHg 57%
    14:00 +7°C° 0 mm 2 m/s 657 mmHg 63%
    15:00 +6°C° 0 mm 2 m/s 656 mmHg 69%
    16:00 +5°C° 0 mm 2 m/s 656 mmHg 76%
    17:00 +5°C° 0 mm 2 m/s 656 mmHg 80%
    18:00 +4°C° 0 mm 2 m/s 656 mmHg 84%
    19:00 +3°C° 0 mm 2 m/s 655 mmHg 88%
    20:00 +3°C° 0 mm 2 m/s 655 mmHg 89%
    21:00 +3°C° 0 mm 2 m/s 655 mmHg 90%
    22:00 +2°C° 0 mm 2 m/s 655 mmHg 92%
    23:00 +2°C° 0 mm 2 m/s 655 mmHg 92%
    Arată mai mult